Regional Weather Roundup
Issued by NWS

Home | Current Version | Previous Version | Graphics & Text | Print | Product List | Glossary On
Versions: 1 2 3 4 5 6 7 8 9 10 11 12 13 14 15 16 17 18 19 20 21 22 23 24 25 26 27 28 29 30 31 32 33 34 35 36 37 38 39 40 41 42 43 44 45 46 47 48 49 50
000
ASUS43 KIND 170700
RWRIN

WEATHER ROUNDUP FOR INDIANA
NATIONAL WEATHER SERVICE INDIANAPOLIS IN
200 AM EST FRI NOV 17 2017

NOTE: "FAIR" INDICATES FEW OR NO CLOUDS BELOW 12,000 FEET WITH NO
SIGNIFICANT WEATHER AND/OR OBSTRUCTIONS TO VISIBILITY.

* - STATION DOES NOT REPORT WEATHER SUCH AS PRECIPITATION OR FOG.

+ - STATION NOT QUALITY CONTROLLED BY THE NATIONAL WEATHER SERVICE.
    USE DATA WITH CAUTION...ESPECIALLY DEWPOINT AND RELATIVE
    HUMIDITY OBSERVATIONS.

INZ001>003-010>013-019-020-170800-
NORTHWEST INDIANA

CITY           SKY/WX    TMP DP  RH WIND       PRES   REMARKS
KNOX *+        CLOUDY    36  32  87 SE7       30.22S WCI  30
LA PORTE +     CLOUDY    35  31  83 SE7       30.21F WCI  29
MICHIGAN CITY+ CLOUDY    36  30  80 S3        30.22S
MONTICELLO +   CLOUDY    35  32  87 SE3       30.21F
RENSSELAER +   CLOUDY    36  30  80 SE6       30.20F WCI  31

$$

LMZ046-743>745-170800-
SOUTHERN LAKE MICHIGAN

STATION/POSITION TIME  TEMP    WIND        PRES    WAVE
                       AIR SEA DIR/SP/G            HT
                 (UTC) (F)     (DEG/KT/KT) (MB)    (FT)
BURNS HARBOR     0640   37        CALM     1023.4F
MICHIGAN CITY    0630   37     140/  5/  7   N/A

$$

INZ004-005-014>016-021>024-170800-
NORTH CENTRAL INDIANA

CITY           SKY/WX    TMP DP  RH WIND       PRES   REMARKS
GOSHEN         CLOUDY    36  28  73 SE7       30.21F WCI  30
PERU/GRISSOM   CLOUDY    36  31  83 SE6       30.22F WCI  31
SOUTH BEND     CLOUDY    36  32  85 S8        30.22F WCI  30
WARSAW +       CLOUDY    36  30  80 SE6       30.22F WCI  31

$$

INZ006>009-017-018-025>027-170800-
NORTHEAST INDIANA

CITY           SKY/WX    TMP DP  RH WIND       PRES   REMARKS
AUBURN +       CLOUDY    36  30  80 CALM      30.23F
FORT WAYNE     CLOUDY    37  30  75 SE5       30.24F WCI  33

$$

INZ028-029-035-036-043>045-051>053-170800-
WEST CENTRAL INDIANA

CITY           SKY/WX    TMP DP  RH WIND       PRES   REMARKS
CRAWFORDSVL +  CLOUDY    29  29 100 SE6       30.17F WCI  23
GREENCASTLE +  CLEAR     30  27  86 E6        30.22F WCI  24
LAFAYETTE      CLOUDY    34  31  88 SE6       30.21F WCI  29
TERRE HAUTE    CLEAR     29  26  89 E7        30.22F WCI  22

$$

INZ030>032-037>040-046>048-054>057-064-065-170800-
CENTRAL INDIANA

CITY           SKY/WX    TMP DP  RH WIND       PRES   REMARKS
FRANKFORT +    CLOUDY    37  33  84 SE8       30.23F WCI  31
GREENWOOD *+   CLOUDY    38  32  78 SE6       30.22F WCI  34
INDIANAPOLIS   CLOUDY    34  29  82 E6        30.24S WCI  29
-EAGLE CREEK   CLOUDY    36  28  73 SE7       30.23S WCI  30
KOKOMO +       CLOUDY    36  31  82 SE8       30.23F WCI  30
MT COMFORT *+  CLOUDY    34  32  93 E8        30.21F WCI  27
SHELBYVILLE    CLOUDY    36  29  75 E13       30.21F WCI  27

$$

INZ033-034-041-042-049-050-058-059-170800-
EAST CENTRAL INDIANA

CITY           SKY/WX    TMP DP  RH WIND       PRES   REMARKS
MUNCIE         CLOUDY    38  30  73 SE8       30.22F WCI  32

$$

INZ060-061-067>069-081>083-085>088-170800-
SOUTHWEST INDIANA

CITY           SKY/WX    TMP DP  RH WIND       PRES   REMARKS
EVANSVILLE     CLEAR     30  28  92 CALM      30.22F
HUNTINGBURG +  CLEAR     27  26  96 E5        30.21F WCI  22

$$

INZ062-063-066-070>080-084-089>092-170800-
SOUTH CENTRAL AND SOUTHEAST INDIANA

CITY           SKY/WX    TMP DP  RH WIND       PRES   REMARKS
BLOOMINGTON    CLOUDY    28  24  85 SE5       30.21F WCI  23
MADISON *+     CLOUDY    34  30  86 E7        30.25F WCI  28
SEYMOUR +      CLEAR     28  27  93 SE5       30.24F WCI  23

$$





USA.gov is the U.S. government's official web portal to all federal, state and local government web resources and services.